AW623 Weather Reports


Display with metric or nautical units.
time (UTC)temp
F
wind
direction
speed
MPH
gust
MPH
rain 1hr
in
rain 24hr
in
rain mn
in
humidity
%
barometer
mb
20260510201122 68 47 12.0 17.0 0.00 0.00 0.00 34 988.2
20260510200122 68 54 11.0 15.0 0.00 0.00 0.00 33 988.0
20260510195122 68 47 13.0 17.0 0.00 0.00 0.00 33 988.1
20260510194122 69 50 11.0 17.0 0.00 0.00 0.00 35 988.2
20260510193122 68 54 11.0 15.0 0.00 0.00 0.00 35 988.2
20260510192123 69 61 11.0 15.0 0.00 0.00 0.00 35 988.2
20260510191122 69 52 9.0 13.0 0.00 0.00 0.00 35 988.2
20260510190124 68 61 11.0 15.0 0.00 0.00 0.00 35 988.4
20260510185145 68 43 11.0 17.0 0.00 0.00 0.00 34 988.2
20260510184124 68 41 11.0 16.0 0.00 0.00 0.00 35 988.1
20260510183123 68 58 10.0 15.0 0.00 0.00 0.00 36 988.0
20260510182143 67 54 11.0 14.0 0.00 0.00 0.00 35 988.1
20260510181122 67 51 12.0 16.0 0.00 0.00 0.00 35 988.1
20260510180144 66 50 14.0 18.0 0.00 0.00 0.00 34 988.2
20260510175122 66 50 13.0 17.0 0.00 0.00 0.00 34 988.1
20260510174122 66 49 15.0 19.0 0.00 0.00 0.00 34 988.2
20260510173123 66 43 14.0 18.0 0.00 0.00 0.00 33 988.2
20260510172122 67 44 15.0 20.0 0.00 0.00 0.00 33 988.0
20260510171122 68 45 15.0 21.0 0.00 0.00 0.00 34 988.0
20260510170123 68 59 15.0 20.0 0.00 0.00 0.00 33 988.1
20260510165123 69 58 16.0 20.0 0.00 0.00 0.00 32 988.0
20260510164122 68 51 15.0 23.0 0.00 0.00 0.00 30 987.9
20260510163123 69 62 14.0 19.0 0.00 0.00 0.00 31 987.9
20260510162122 68 49 15.0 22.0 0.00 0.00 0.00 32 987.8
20260510161122 66 59 14.0 18.0 0.00 0.00 0.00 35 987.8
20260510160122 65 54 13.0 17.0 0.00 0.00 0.00 36 987.9
20260510155122 64 55 14.0 20.0 0.00 0.00 0.00 36 987.6
20260510154122 66 57 12.0 16.0 0.00 0.00 0.00 36 987.4
20260510153122 67 53 11.0 15.0 0.00 0.00 0.00 35 987.2
20260510152123 64 60 12.0 17.0 0.00 0.00 0.00 37 987.2
20260510151122 63 60 12.0 16.0 0.00 0.00 0.00 39 987.2
20260510150122 62 56 15.0 20.0 0.00 0.00 0.00 40 987.0
20260510145122 63 56 18.0 23.0 0.00 0.00 0.00 39 986.7
20260510144122 62 60 16.0 24.0 0.00 0.00 0.00 40 986.8
20260510143122 63 59 12.0 19.0 0.00 0.00 0.00 42 986.9
20260510142122 60 61 13.0 17.0 0.00 0.00 0.00 43 987.2
20260510141122 60 63 11.0 16.0 0.00 0.00 0.00 44 987.2
20260510140143 60 54 12.0 16.0 0.00 0.00 0.00 44 987.5
20260510135122 59 53 11.0 15.0 0.00 0.00 0.00 45 987.4
20260510134122 59 58 12.0 17.0 0.00 0.00 0.00 45 987.1
20260510133122 59 55 13.0 17.0 0.00 0.00 0.00 46 986.7
20260510132122 59 63 13.0 18.0 0.00 0.00 0.00 46 986.4
20260510131122 59 53 13.0 16.0 0.00 0.00 0.00 46 986.4
20260510130122 59 64 13.0 16.0 0.00 0.00 0.00 46 986.0
20260510125123 59 65 14.0 18.0 0.00 0.00 0.00 46 985.7
20260510124123 59 61 15.0 18.0 0.00 0.00 0.00 47 985.4
20260510123122 59 64 14.0 18.0 0.00 0.00 0.00 48 985.1
20260510122122 59 54 15.0 19.0 0.00 0.00 0.00 50 985.0
20260510121122 59 50 14.0 19.0 0.00 0.00 0.00 53 985.0
20260510120122 59 57 13.0 18.0 0.00 0.00 0.00 53 984.0
20260510115122 59 61 14.0 18.0 0.00 0.00 0.00 55 984.0
20260510114123 59 62 14.0 18.0 0.00 0.00 0.00 57 983.7
20260510113122 59 63 13.0 17.0 0.00 0.00 0.00 59 983.4
20260510112144 59 64 14.0 20.0 0.00 0.00 0.00 60 983.2
20260510111122 59 74 13.0 16.0 0.00 0.00 0.00 60 983.2
20260510110122 59 62 13.0 17.0 0.00 0.00 0.00 60 983.2
20260510105122 60 57 13.0 16.0 0.00 0.00 0.00 59 983.2
20260510104123 60 62 13.0 17.0 0.00 0.00 0.00 58 982.9
20260510103122 61 66 12.0 15.0 0.00 0.00 0.00 57 982.7
20260510102143 61 74 10.0 13.0 0.00 0.00 0.00 57 982.7
20260510101122 60 71 7.0 11.0 0.00 0.00 0.00 58 982.7
20260510100125 61 84 8.0 12.0 0.00 0.00 0.00 57 982.2
20260510095122 61 62 11.0 15.0 0.00 0.00 0.00 56 982.6
20260510094123 62 56 11.0 13.0 0.00 0.00 0.00 56 982.2
20260510093122 62 60 11.0 16.0 0.00 0.00 0.00 55 981.9
20260510092122 62 58 12.0 14.0 0.00 0.00 0.00 55 981.8
20260510091122 63 63 11.0 14.0 0.00 0.00 0.00 54 981.8
20260510090122 63 66 11.0 16.0 0.00 0.00 0.00 54 981.7
20260510085123 63 64 10.0 12.0 0.00 0.00 0.00 55 981.7
20260510084123 63 64 11.0 14.0 0.00 0.00 0.00 55 981.7
20260510083122 64 57 9.0 11.0 0.00 0.00 0.00 55 981.4
20260510082143 64 52 9.0 13.0 0.00 0.00 0.00 55 981.2
20260510081122 64 53 10.0 11.0 0.00 0.00 0.00 56 981.2
20260510080122 64 62 8.0 9.0 0.00 0.00 0.00 57 981.0
20260510075122 64 52 6.0 8.0 0.00 0.00 0.00 58 981.0
20260510074122 64 53 6.0 7.0 0.00 0.00 0.00 58 980.6
20260510073123 64 64 6.0 8.0 0.00 0.00 0.00 57 980.5
20260510072122 64 56 6.0 7.0 0.00 0.00 0.00 57 980.5
20260510071123 65 56 5.0 6.0 0.00 0.00 0.00 56 980.5
20260510070122 65 46 5.0 6.0 0.00 0.00 0.00 55 980.6
20260510065122 65 57 5.0 5.0 0.00 0.00 0.00 55 980.6
20260510064123 66 60 4.0 6.0 0.00 0.00 0.00 54 980.4
20260510063122 66 59 5.0 5.0 0.00 0.00 0.00 54 980.2
20260510062122 66 47 4.0 5.0 0.00 0.00 0.00 54 980.2
20260510061122 66 60 4.0 6.0 0.00 0.00 0.00 53 980.2
20260510060144 67 59 5.0 6.0 0.00 0.00 0.00 52 980.0
20260510055122 67 70 4.0 5.0 0.00 0.00 0.00 51 980.0
20260510054122 68 77 3.0 5.0 0.00 0.00 0.00 50 979.9
20260510053122 68 81 2.0 4.0 0.00 0.00 0.00 50 980.0
20260510052122 69 71 4.0 6.0 0.00 0.00 0.00 48 980.0
20260510051122 69 57 6.0 7.0 0.00 0.00 0.00 47 980.0
20260510050122 70 90 5.0 6.0 0.00 0.00 0.00 46 979.8
20260510045144 70 73 5.0 8.0 0.00 0.00 0.00 46 979.9
20260510044123 70 65 5.0 6.0 0.00 0.00 0.00 47 979.7
20260510043122 70 63 4.0 5.0 0.00 0.00 0.00 47 979.7
20260510042122 71 77 4.0 6.0 0.00 0.00 0.00 45 979.8
20260510041143 72 79 4.0 7.0 0.00 0.00 0.00 44 979.8
20260510040122 73 72 4.0 7.0 0.00 0.00 0.00 43 980.1
20260510035122 74 71 4.0 6.0 0.00 0.00 0.00 42 979.8
20260510034144 74 90 5.0 9.0 0.00 0.00 0.00 42 979.7
20260510033123 75 79 5.0 11.0 0.00 0.00 0.00 41 979.6
20260510032122 75 53 7.0 9.0 0.00 0.00 0.00 41 979.6
20260510031143 75 54 6.0 11.0 0.00 0.00 0.00 41 979.6
20260510030143 76 343 6.0 11.0 0.00 0.00 0.00 40 979.1
20260510025122 76 291 5.0 10.0 0.00 0.00 0.00 42 978.8
20260510024122 75 315 5.0 7.0 0.00 0.00 0.00 43 978.5
20260510023122 75 335 5.0 7.0 0.00 0.00 0.00 43 978.0
20260510022123 77 215 3.0 5.0 0.00 0.00 0.00 41 977.6
20260510021143 77 206 5.0 8.0 0.00 0.00 0.00 41 977.6
20260510020122 77 211 5.0 6.0 0.00 0.00 0.00 40 977.2
20260510015122 77 217 5.0 7.0 0.00 0.00 0.00 40 977.0
20260510014122 78 196 5.0 9.0 0.00 0.00 0.00 39 976.7
20260510013122 78 207 5.0 7.0 0.00 0.00 0.00 38 976.5
20260510012143 78 155 5.0 10.0 0.00 0.00 0.00 38 976.2
20260510011123 79 160 7.0 9.0 0.00 0.00 0.00 37 976.2
20260510010122 78 118 4.0 6.0 0.00 0.00 0.00 38 976.0
20260510005123 79 77 4.0 5.0 0.00 0.00 0.00 36 975.6
20260510004122 80 52 3.0 5.0 0.00 0.00 0.00 36 975.4
20260510003122 84 196 2.0 3.0 0.00 0.00 0.00 31 975.5
20260510002124 84 207 3.0 3.0 0.00 0.00 0.00 29 975.4
20260510001122 87 199 3.0 4.0 0.00 0.00 0.00 28 975.4
20260510000122 86 215 3.0 5.0 0.00 0.00 0.00 28 975.5
20260509235122 84 219 3.0 5.0 0.00 0.00 0.00 29 975.5
20260509234122 84 212 5.0 7.0 0.00 0.00 0.00 28 975.5
20260509233143 85 229 4.0 6.0 0.00 0.00 0.00 28 975.4
20260509232122 86 236 5.0 8.0 0.00 0.00 0.00 26 975.2
20260509231123 87 274 6.0 8.0 0.00 0.00 0.00 24 975.2
20260509230125 88 280 6.0 9.0 0.00 0.00 0.00 23 975.2
20260509225143 91 278 7.0 11.0 0.00 0.00 0.00 23 975.2
20260509224143 92 294 7.0 10.0 0.00 0.00 0.00 22 975.2
20260509223122 93 286 6.0 8.0 0.00 0.00 0.00 21 975.2
20260509222122 91 273 8.0 11.0 0.00 0.00 0.00 23 975.2
20260509221122 89 245 7.0 11.0 0.00 0.00 0.00 23 975.2
20260509220122 89 275 6.0 11.0 0.00 0.00 0.00 25 975.2
20260509215122 91 260 7.0 10.0 0.00 0.00 0.00 22 975.2
20260509214122 89 251 8.0 13.0 0.00 0.00 0.00 23 975.2
20260509213122 89 234 7.0 11.0 0.00 0.00 0.00 25 975.4
20260509212123 88 229 9.0 12.0 0.00 0.00 0.00 24 975.5
20260509211122 87 266 8.0 14.0 0.00 0.00 0.00 24 975.5
20260509210122 89 280 8.0 15.0 0.00 0.00 0.00 24 975.6
20260509205122 90 279 11.0 13.0 0.00 0.00 0.00 24 975.9
20260509204122 92 295 8.0 10.0 0.00 0.00 0.00 24 975.9
20260509203122 88 279 7.0 11.0 0.00 0.00 0.00 23 976.0
20260509202123 89 275 6.0 10.0 0.00 0.00 0.00 23 976.2